CAPE
3 2 1 4 0 0 0 1 3 0 19 12 12 17 12 32 45 23 4 19 17 18 61 45 1 0 5 39 4 0 71 116 1 17 75 11 0 12 0 4 3 1 1 2 8 30 2 3 8 10 5 30 53 38
2 5 0 0 0 0 2 0 0 0 23 53 52 21 15 31 52 2 3 6 30 50 2 20 2 19 14 30 47 42 13 50 38 24 78 62 17 1 0 0 11 1 0 0 15 1 49 18 19 48 83 129 119 143
5 0 0 1 1 2 6 0 3 17 16 49 37 14 19 41 41 6 1 3 9 2 2 0 0 51 12 63 174 35 25 65 140 1 47 59 30 11 0 41 3 0 40 14 0 0 0 40 44 42 62 81 144 139
8 9 2 0 1 7 0 13 3 19 20 27 19 16 26 36 4 15 2 6 1 3 5 0 0 50 40 29 43 73 112 133 225 250 155 51 24 11 1 55 28 0 5 26 0 0 7 0 0 28 110 74 99 66
6 7 0 0 1 5 10 10 7 13 24 25 20 18 28 17 10 53 17 6 16 2 0 0 11 11 28 2 2 18 103 91 117 124 77 16 19 50 43 47 20 10 3 4 26 11 19 48 55 112 35 0 12 73
10 5 0 0 2 10 14 8 10 21 18 18 19 13 12 16 28 7 0 5 9 0 1 5 5 11 48 9 0 0 11 66 142 68 23 98 74 84 11 0 0 0 4 16 47 82 55 37 34 32 1 1 32 44
2 8 3 0 10 8 4 6 17 20 17 16 23 24 25 27 16 9 0 0 0 0 0 3 5 0 1 38 9 0 0 0 15 24 19 10 73 21 0 0 0 0 0 0 1 0 0 3 18 7 4 4 30 37
1 0 0 2 3 7 5 12 11 23 28 28 18 21 12 4 5 0 0 0 0 5 1 2 2 17 27 13 9 21 33 38 49 13 11 33 41 40 21 0 0 0 2 9 6 10 22 13 0 0 0 0 7 8
1 1 1 1 2 1 1 8 1 7 8 6 11 7 1 0 7 2 0 0 10 5 16 1 5 12 1 49 13 67 49 27 59 29 33 38 1 10 3 3 0 0 0 0 0 0 0 0 0 0 0 0 0 0
1 1 1 1 1 0 0 3 7 3 5 5 0 0 0 9 0 0 4 8 8 17 15 5 0 0 0 0 10 26 5 26 3 0 22 13 2 2 5 5 4 2 0 0 0 0 0 0 0 0 0 0 0 0
2 1 0 1 1 1 2 2 2 1 0 8 10 1 5 2 3 8 2 3 0 0 0 0 13 0 0 0 0 1 2 0 18 14 3 7 0 4 0 2 4 3 0 0 0 0 0 0 0 0 0 0 0 0
1 1 2 3 2 6 5 3 2 3 4 3 0 4 2 1 7 1 0 0 0 1 20 3 10 0 1 0 0 0 1 0 0 13 15 2 1 2 2 3 5 5 3 3 3 3 1 2 2 0 1 1 2 3
0 0 0 1 1 3 1 0 0 0 28 17 21 12 16 1 1 2 0 5 8 0 1 10 0 1 3 0 0 0 0 0 0 3 2 1 2 2 1 1 2 2 2 4 4 4 2 2 2 3 3 3 3 3
0 0 0 0 0 0 0 0 0 0 12 0 0 0 0 1 2 2 1 0 1 1 0 0 0 0 0 0 0 0 0 0 0 0 0 1 1 1 0 0 0 1 1 1 2 1 1 0 0 1 1 1 1 1
1 2 1 0 0 0 0 0 0 0 0 0 0 1 2 1 1 1 1 1 1 2 1 2 0 1 0 1 0 0 0 1 0 0 0 1 0 1 0 0 0 0 0 0 1 1 1 1 1 1 1 1 0 0
0 0 1 0 0 0 0 0 0 0 2 0 0 1 0 0 1 1 2 3 1 1 0 0 0 1 1 0 0 1 1 1 0 1 1 0 0 0 0 0 1 0 0 0 1 1 1 1 1 1 1 0 0 0
0 1 0 0 0 0 0 0 0 0 0 1 0 0 2 2 2 4 3 2 1 1 4 1 1 2 0 0 2 1 1 0 0 0 0 0 0 0 1 0 1 0 0 0 1 1 1 0 0 0 0 1 0 0
1 0 0 0 0 0 0 0 0 0 0 0 0 1 1 0 1 3 2 1 2 2 1 1 0 0 0 0 0 0 0 0 0 0 0 0 0 0 0 0 0 1 0 0 0 0 0 0 0 0 0 0 0 0
2 1 0 0 0 0 0 0 0 0 0 1 0 0 0 1 0 0 1 1 1 0 0 0 0 0 0 0 0 0 0 0 0 0 0 0 0 0 0 0 0 0 0 0 0 0 0 0 0 0 0 0 0 0
0 0 0 0 0 0 0 0 0 0 0 0 0 0 0 0 0 0 0 0 0 0 0 0 0 0 0 0 0 0 0 1 0 0 0 1 0 0 0 0 0 0 0 0 0 0 0 0 0 0 0 0 0 0
0 0 0 0 0 0 3 3 1 0 0 3 0 0 2 0 0 0 0 0 0 0 1 2 0 0 0 0 0 0 0 0 0 0 0 0 0 0 0 0 0 0 0 0 0 0 0 0 0 0 0 0 0 0
0 0 0 0 0 0 0 1 3 4 3 5 0 3 2 1 0 0 0 1 3 1 1 1 1 0 1 1 1 0 0 0 0 0 0 0 0 0 0 0 0 0 0 0 0 0 0 0 0 0 0 0 0 0
0 0 0 0 0 0 0 0 0 1 0 0 0 0 1 1 0 0 0 1 3 5 2 3 3 0 0 0 0 0 0 0 0 0 0 0 0 0 0 0 0 0 0 0 0 0 0 0 0 0 0 0 0 0
0 0 0 0 0 0 0 0 0 0 0 0 0 0 0 1 0 0 0 4 2 1 3 6 0 0 0 0 0 0 0 0 0 0 0 0 0 0 0 0 0 0 0 0 0 0 0 0 0 0 0 0 0 0
0 0 0 0 0 0 0 0 0 0 0 0 0 0 1 0 0 0 0 2 1 1 4 2 0 0 0 0 0 0 0 0 0 0 0 0 0 0 0 0 0 0 0 0 0 0 0 0 0 0 0 0 0 0
0 0 0 0 0 0 0 0 0 0 0 0 0 1 2 0 0 0 1 3 0 0 1 6 2 0 0 0 0 0 0 0 0 0 0 0 0 0 0 0 0 0 0 0 0 0 0 0 0 0 0 0 0 0
0 0 0 0 1 0 1 2 0 0 0 0 0 0 0 0 1 0 0 1 1 0 0 0 0 0 0 0 0 0 0 0 0 0 0 0 0 0 0 0 0 0 0 0 0 0 0 0 0 0 0 0 0 0
0 0 0 0 1 0 0 0 0 0 0 0 0 0 0 0 0 0 1 1 0 0 0 0 0 0 0 0 0 0 0 0 0 0 0 0 0 0 0 0 0 0 0 0 0 0 0 0 0 0 0 0 0 0
1 0 0 0 0 0 0 0 0 0 0 0 0 0 0 0 1 1 0 1 0 1 0 0 0 0 0 0 0 0 0 0 0 0 0 0 0 0 0 0 0 0 0 0 0 0 0 0 0 0 0 0 0 0
0 0 0 0 0 0 1 0 0 1 0 0 0 0 0 0 2 1 1 3 2 0 0 0 0 0 0 0 0 0 0 0 0 0 0 0 0 0 0 0 0 0 0 0 0 0 0 0 0 0 0 0 0 0
0 0 0 0 0 0 0 2 1 1 1 0 0 0 0 0 0 0 0 0 0 0 0 1 0 0 0 0 0 0 0 0 0 0 0 0 0 0 0 0 0 0 0 0 0 0 0 0 0 0 0 0 0 0
0 0 0 0 0 0 1 1 1 2 1 0 0 0 0 0 0 0 0 0 0 0 0 0 0 0 0 0 0 0 0 0 0 0 0 0 0 0 0 0 0 0 0 0 0 0 0 0 0 0 0 0 0 0
0 0 0 0 0 0 0 1 0 0 2 1 0 0 0 0 0 0 0 0 0 0 0 0 0 0 0 0 0 0 0 0 0 0 0 0 0 0 0 0 0 0 0 0 0 0 0 0 0 0 0 0 0 0
CIN
0 0 -3 -5 0 0 0 -2 -7 0 -15 0 0 0 0 0 0 0 -1 0 0 0 -2 -6 -9 0 -4 -1 -8 0 -1 -7 -1 0 -2 -2 0 -1 0 -5 -25 -32 -4 -2 -2 -2 -3 -7 -5 -2 -10 -39 -10 -9
0 -4 0 0 0 0 -2 -2 0 0 -5 -3 0 0 0 0 0 0 0 -3 -1 0 -3 -12 -89 -50 -43 -30 -3 -7 -3 -15 -3 -1 -3 -9 -3 -10 -14 -4 -13 -6 0 0 -3 -1 -15 -16 -7 -17 -15 -9 -9 -8
-4 0 0 -7 -3 -4 -3 0 -11 -1 -2 -4 0 -1 0 0 0 0 -2 -2 0 0 -2 0 0 -12 -11 -25 -32 -1 -4 -6 -19 -10 -22 -4 -2 -11 -4 -8 -1 0 -31 -34 0 0 0 -24 -17 -28 -47 -62 -42 -27
-7 -10 -9 0 -2 -2 -2 0 -8 -4 0 0 -1 0 0 0 -3 -2 -1 -1 0 -1 -12 0 0 -2 -4 -73 -58 -47 -18 -46 -5 -2 -4 -8 -4 -4 -26 -31 -19 0 -9 -15 0 0 -3 0 0 -31 -31 -41 -34 -54
-12 -9 -1 0 -1 -2 0 0 -11 0 0 0 0 0 0 -3 -1 -2 -1 -2 -1 -9 0 0 -1 -1 -43 -67 -62 -38 -20 -16 -19 -13 -36 -19 -67 -8 -9 -10 -9 -17 -16 -3 -6 -7 -14 -17 -11 0 -2 -1 -46 -29
-3 -6 0 0 -3 -4 -2 0 0 0 0 0 0 -1 0 -2 -1 -2 0 -6 -6 -31 0 -1 -3 -2 -12 -39 0 0 -38 -17 -1 0 0 -2 -1 -1 -1 0 0 0 -10 -20 -5 -3 -20 -32 -70 -63 -21 -67 -9 -12
-7 -7 -9 -3 -4 -4 -4 -3 -1 -1 -1 0 0 0 -2 -3 -1 -1 0 0 0 -29 -1 -2 -1 -1 0 -18 -28 0 -2 0 -47 -26 -18 -18 -1 -1 -2 0 0 0 0 0 -43 -19 -22 -11 -86 -171 -191 -163 -95 -55
0 0 0 -11 -3 -6 -3 0 -3 -1 0 0 0 -3 -3 -3 -2 0 -1 0 -4 -2 -1 -1 -1 -6 -1 -2 -2 -22 -8 -16 0 -4 -2 -1 -4 -6 -1 0 0 0 -16 -42 -54 -177 -141 -169 0 0 0 0 -216 -185
0 0 0 -1 0 0 0 0 0 0 0 -1 -1 -2 -1 -1 0 -4 0 0 -7 -5 0 -3 -4 -3 -4 0 -3 -2 -11 -5 -6 -3 -5 -3 -3 -8 0 0 0 0 0 0 0 0 0 0 0 0 0 0 0 0
0 0 0 0 0 0 -3 0 0 -1 -1 -2 0 0 0 0 -8 0 -3 -1 0 0 -3 -1 0 0 0 0 -1 -5 -3 -3 -9 0 -6 -13 -17 0 0 0 0 0 0 0 0 0 0 0 0 0 0 0 0 0
0 0 0 -1 0 0 0 0 -1 -1 0 -3 0 0 0 -5 -4 -5 0 0 0 0 0 0 -7 0 0 0 0 0 -1 -7 -1 -7 -5 -2 -1 0 0 0 0 0 0 0 0 0 0 0 0 0 0 0 0 0
-1 -1 0 0 0 -2 -2 -1 -3 -3 -1 0 0 -1 0 0 -1 0 0 0 -2 -2 -2 -3 -6 0 0 0 0 0 -5 0 0 -7 -5 0 0 0 0 0 0 0 0 0 0 0 0 0 0 0 0 0 0 0
-1 -1 -1 -6 -1 -5 -1 0 0 0 -12 -12 -2 0 -1 -1 -1 -1 0 -7 0 0 0 -6 0 0 0 0 0 0 0 0 0 0 0 0 0 0 0 0 0 0 0 0 0 0 0 0 0 0 0 0 0 0
0 0 0 0 0 0 0 0 0 0 -3 0 -1 0 0 0 0 0 0 0 0 0 0 0 0 0 0 0 0 0 0 0 0 0 0 0 0 0 0 0 0 0 0 0 0 0 0 0 0 0 0 0 0 0
-4 -7 -3 -7 0 0 0 0 0 0 0 0 0 0 0 0 0 0 0 0 0 0 0 0 0 0 0 0 0 0 0 0 0 0 0 0 0 0 0 0 0 0 0 0 0 0 0 0 0 0 0 0 0 0
0 -1 0 0 0 0 0 0 0 0 0 0 0 0 0 0 0 0 0 0 0 0 0 0 0 0 0 0 0 0 0 0 0 0 0 0 0 0 0 0 0 0 0 0 0 0 0 0 0 0 0 0 0 0
-1 0 0 0 0 0 0 0 0 0 0 0 0 0 0 0 0 0 0 0 0 0 0 0 0 0 0 0 0 0 0 0 0 0 0 0 0 0 0 0 0 0 0 0 0 0 0 0 0 0 0 0 0 0
0 0 0 0 0 0 0 0 0 -1 0 0 0 0 0 0 0 0 0 0 0 0 0 0 0 0 0 0 0 0 0 0 0 0 0 0 0 0 0 0 0 0 0 0 0 0 0 0 0 0 0 0 0 0
0 0 0 0 0 0 0 0 0 0 0 0 0 0 -1 -1 0 0 0 0 0 0 0 0 0 0 0 0 0 0 0 0 0 0 0 0 0 0 0 0 0 0 0 0 0 0 0 0 0 0 0 0 0 0
0 0 0 0 0 0 0 0 0 0 -1 0 0 0 0 0 0 0 0 0 0 0 0 0 0 0 0 0 0 0 0 0 0 0 0 0 0 0 0 0 0 0 0 0 0 0 0 0 0 0 0 0 0 0
0 0 0 0 0 0 0 -1 -1 0 0 0 -1 0 0 0 0 0 0 0 0 -1 0 0 0 0 0 0 0 0 0 0 0 0 0 0 0 0 0 0 0 0 0 0 0 0 0 0 0 0 0 0 0 0
0 0 0 0 0 0 0 -1 -1 -2 -4 -1 -1 -1 -1 0 0 0 0 0 0 0 0 -1 0 -1 -1 0 0 -1 0 0 0 0 0 0 0 0 0 0 0 0 0 0 0 0 0 0 0 0 0 0 0 0
0 0 0 0 0 0 0 0 0 -1 0 0 -1 0 -1 0 -1 0 -1 -2 -1 0 -1 -1 -1 0 0 0 0 0 0 0 -1 -1 0 0 0 0 0 0 0 0 0 0 0 0 0 0 0 0 0 0 0 0
0 0 0 0 0 0 0 0 0 -1 0 0 0 0 0 -1 0 0 0 0 -1 -1 0 0 -1 0 0 0 0 0 0 0 -1 0 0 0 0 0 0 0 0 0 0 0 0 0 0 0 0 0 0 0 0 0
0 0 0 0 0 0 0 0 0 0 0 0 0 0 -1 -1 0 0 0 0 -1 -1 0 -2 -3 -3 0 -1 0 0 0 0 0 0 0 0 0 0 0 0 0 0 0 0 0 0 0 0 0 0 0 0 0 0
0 0 0 0 0 0 0 0 0 0 0 0 0 -1 -1 -1 0 0 0 0 -1 0 0 0 -1 0 0 0 0 0 0 0 0 0 0 0 0 0 0 0 0 0 0 -1 0 0 0 0 0 0 0 0 0 0
0 0 -1 -1 -1 0 0 0 0 0 0 -1 -1 -1 0 0 0 0 -1 -1 0 -1 -1 -1 0 0 0 0 0 0 0 0 0 0 0 0 0 0 0 0 0 0 -1 0 0 0 0 0 0 0 0 0 0 0
0 0 0 0 0 0 0 0 0 0 0 -1 0 0 0 0 0 0 0 -1 -2 0 0 0 0 0 0 -3 -4 -4 -3 0 0 0 0 0 0 0 0 0 0 0 0 0 0 0 0 0 0 0 0 0 0 0
0 0 0 0 0 0 0 0 0 0 0 -1 0 0 0 -1 -1 0 -1 -1 -1 -1 -1 -1 -1 -3 -3 -1 0 0 0 0 0 0 0 0 0 0 0 0 0 0 0 0 0 0 0 0 0 0 0 0 0 0
0 0 0 0 0 0 0 0 -1 0 0 0 0 0 -1 0 -1 -1 -4 -2 -1 0 0 -1 -1 -2 0 -2 0 0 0 0 0 0 0 0 0 0 0 0 0 0 -1 0 0 0 0 0 0 0 0 0 0 0
-1 0 0 0 0 0 -1 0 -1 -1 -1 -1 0 0 0 -1 -1 0 0 0 0 -1 -1 -1 0 0 0 0 0 0 0 0 0 0 0 0 0 0 0 0 0 0 0 0 0 0 0 0 0 0 0 0 0 0
0 0 0 0 0 0 0 0 -2 -1 -2 -1 0 0 0 -2 0 -1 0 0 0 0 0 0 0 0 0 0 0 0 0 0 0 0 0 0 0 0 0 0 0 0 0 0 0 0 0 0 0 0 0 0 0 0
0 0 0 0 0 0 0 -1 0 0 -1 0 -1 0 0 0 0 0 0 0 0 0 -1 0 0 0 0 0 0 0 0 0 0 0 0 0 0 0 0 0 0 0 0 0 0 0 0 0 0 0 0 0 0 0
Wind_Speed
45 34 17 27 30 29 24 23 21 24 28 32 32 33 35 41 39 41 43 47 42 35 29 28 28 32 38 37 40 35 36 40 43 39 47 42 43 41 42 36 32 32 33 37 36 37 44 19 27 25 30 27 29 33
32 21 22 28 29 38 27 15 19 43 34 33 29 32 45 37 37 38 43 42 43 39 25 19 29 33 33 38 38 31 41 34 40 34 36 38 36 37 42 46 30 33 31 31 30 32 32 27 30 30 30 29 32 31
25 26 25 20 23 27 22 13 24 12 22 32 34 39 46 34 33 42 46 43 28 35 31 32 29 27 31 28 25 33 38 31 36 36 38 36 41 38 39 43 37 32 24 31 29 41 37 29 29 31 33 33 32 32
18 20 22 22 22 19 18 16 21 21 28 32 30 45 36 34 30 37 40 40 31 18 25 30 29 33 27 25 23 24 30 27 39 42 40 29 36 32 44 36 39 36 31 32 34 30 31 43 35 33 26 29 29 28
10 19 5 12 11 3 17 9 10 40 28 29 38 35 35 27 31 32 34 35 34 23 28 23 24 19 20 20 24 23 26 29 35 36 37 39 34 34 32 32 39 32 37 38 36 32 34 32 26 30 25 35 37 30
21 19 10 28 27 12 20 15 23 25 31 35 32 30 28 28 29 29 25 26 23 20 17 27 24 17 17 19 23 29 30 29 33 34 32 31 31 32 36 42 35 38 37 36 35 30 30 33 34 33 33 34 36 28
17 19 25 25 30 33 35 24 29 29 31 30 29 28 28 29 27 27 27 25 31 19 16 18 20 22 17 19 24 26 24 35 32 37 34 37 33 33 40 43 33 35 40 42 40 36 39 38 35 32 32 34 34 30
7 29 24 30 35 35 42 42 32 32 26 27 30 37 31 23 19 14 12 17 19 20 22 19 17 15 17 21 21 22 22 41 35 25 22 26 28 31 42 36 39 41 38 36 29 29 32 32 32 34 33 32 33 34
12 20 23 34 26 30 49 51 47 31 30 29 28 25 21 19 19 20 16 17 19 20 22 20 19 19 18 17 19 18 26 38 33 37 28 23 27 31 26 26 25 26 28 32 33 31 31 33 32 30 31 31 30 30
13 20 24 28 30 30 24 25 25 25 26 22 21 19 22 21 12 8 13 18 20 25 22 21 21 19 17 17 19 23 24 28 33 36 25 29 25 23 26 28 29 29 30 29 30 31 31 30 30 30 29 26 25 21
9 11 13 16 20 27 27 21 19 20 23 24 21 17 18 18 16 15 17 21 19 20 20 21 19 15 20 19 21 28 25 28 27 26 28 30 28 28 28 28 26 27 28 26 26 26 27 28 27 22 23 24 22 20
8 8 11 12 14 16 18 24 25 14 16 16 12 14 15 16 16 15 16 16 19 22 18 27 28 26 28 28 29 31 31 29 16 15 21 26 24 27 28 26 25 25 25 26 25 24 24 24 23 20 21 20 18 16
9 10 11 14 16 12 10 8 8 9 16 18 15 14 15 13 15 17 19 18 23 20 19 22 24 23 25 25 28 31 24 24 18 12 19 17 23 23 23 21 20 20 20 20 20 19 18 19 19 19 17 17 16 16
10 11 14 15 11 7 7 8 9 11 14 14 12 10 12 12 10 12 15 15 17 18 18 19 20 20 22 24 19 19 14 13 14 13 14 20 21 21 20 18 17 17 17 17 17 17 16 16 16 16 16 16 15 15
15 10 4 5 3 5 8 11 7 8 16 17 11 12 10 13 12 14 16 18 15 16 17 17 16 14 13 12 13 15 17 15 14 15 17 19 18 17 16 16 15 15 16 16 16 15 16 15 15 15 16 15 15 15
24 23 18 16 12 14 18 13 13 14 17 16 12 14 12 14 14 15 16 18 16 16 17 15 17 18 16 16 14 14 13 15 15 15 16 17 17 16 15 14 17 17 17 17 18 18 17 17 17 17 17 17 17 16
18 16 25 28 25 1 16 18 15 13 12 13 12 8 12 14 14 15 16 18 18 19 19 16 14 15 13 17 16 16 16 11 11 12 12 13 14 14 14 15 17 18 19 19 20 19 19 18 18 18 18 18 18 18
20 23 16 9 9 9 8 13 16 14 14 11 15 11 11 10 10 11 11 11 17 21 16 16 15 14 15 14 13 11 9 10 10 10 12 13 14 15 16 17 18 18 19 19 19 19 19 19 19 19 18 18 18 19
23 17 10 6 10 16 17 15 17 21 17 16 12 8 8 6 1 4 8 6 6 8 9 5 14 14 14 13 13 11 10 11 12 13 13 15 15 16 17 17 18 19 20 20 20 20 20 21 21 21 21 21 22 23
15 10 9 8 11 19 19 18 20 19 20 21 19 6 6 4 3 9 8 6 7 8 10 11 13 14 13 13 13 14 15 14 14 14 15 17 18 19 20 20 20 20 20 21 22 22 22 23 24 24 24 25 25 25
14 13 10 15 17 15 17 16 16 20 23 17 20 7 4 11 16 16 14 16 17 9 14 16 17 18 18 18 18 17 18 17 17 16 16 17 19 20 20 21 21 22 22 23 23 24 25 25 25 26 25 26 27 28
19 14 13 10 15 14 13 8 17 16 14 16 4 5 8 7 12 15 18 20 22 22 22 22 21 21 21 21 21 21 20 20 19 19 20 20 20 21 22 22 22 23 24 24 24 25 26 26 27 27 28 28 27 28
16 13 10 8 8 9 15 14 11 10 14 17 17 14 18 22 20 20 23 24 24 23 23 23 22 22 22 22 22 23 22 21 21 21 21 22 21 21 22 23 23 24 25 25 25 25 26 27 27 28 28 29 30 30
10 10 8 8 7 8 15 10 15 17 17 18 21 21 21 21 21 21 22 21 22 21 22 20 20 20 21 22 23 23 23 21 21 22 21 21 22 22 22 23 24 25 26 26 26 27 28 28 29 29 29 30 30 30
9 9 8 9 11 12 13 14 15 16 17 18 19 20 20 20 19 20 19 18 20 20 21 21 21 20 20 21 22 23 23 22 22 22 24 23 22 22 22 23 25 26 27 27 27 27 28 28 28 28 28 28 29 28
8 10 9 9 10 11 12 13 15 16 17 18 19 18 19 19 19 19 19 18 18 20 21 21 20 20 22 22 21 22 24 22 21 22 23 24 24 24 24 24 24 26 26 26 26 26 26 26 26 26 26 26 27 28
8 9 10 11 11 12 13 15 16 17 18 19 18 19 19 20 20 19 18 19 17 18 20 21 20 20 20 20 21 21 22 22 21 21 21 22 23 24 24 24 24 24 24 24 24 24 24 25 25 26 26 27 27 28
9 10 9 11 12 15 13 15 17 18 18 19 19 20 20 21 20 19 17 16 16 17 18 20 21 20 20 20 20 20 20 19 19 19 19 20 22 23 23 21 21 22 21 21 22 23 24 25 25 26 26 26 26 26
10 10 11 12 13 15 18 18 18 18 19 19 19 20 20 20 18 16 16 15 16 16 18 19 19 18 18 19 20 21 22 22 21 21 21 21 20 23 22 22 22 22 22 22 21 21 23 23 23 23 24 24 24 24
9 11 11 14 14 16 18 18 18 19 20 19 19 19 19 19 20 17 16 16 17 19 18 18 17 17 17 17 18 20 21 22 22 21 21 20 20 20 21 22 22 22 21 21 22 22 21 24 22 21 22 23 24 25
10 11 13 14 14 14 15 17 19 21 22 21 20 19 18 17 18 20 19 18 17 17 17 17 17 17 17 18 20 19 18 20 20 20 20 20 20 20 21 21 20 20 19 20 21 21 23 23 23 23 23 24 23 23
12 12 11 12 12 12 12 14 18 19 19 21 21 19 18 20 22 19 17 17 17 17 17 17 16 16 18 18 19 19 19 18 19 20 20 20 21 22 23 21 15 16 18 19 19 19 20 21 21 21 22 23 24 24
12 13 13 13 13 14 14 15 18 19 20 21 21 21 22 23 23 19 16 16 18 16 15 17 17 17 17 18 18 18 18 18 19 19 19 20 21 22 18 15 19 20 19 19 19 19 20 21 21 22 23 23 22 23
Wind_Direction
299 274 311 323 317 309 296 283 268 256 242 222 219 209 211 220 218 218 224 225 220 232 241 244 248 250 246 244 241 242 238 237 230 234 233 237 240 243 244 247 247 250 247 251 254 259 259 282 268 255 269 272 275 282
285 347 347 333 325 308 299 212 213 236 189 188 198 189 217 210 210 210 219 225 221 228 241 254 244 250 251 246 246 240 237 239 232 236 238 237 242 241 242 243 252 251 248 257 259 258 280 275 268 263 266 277 276 289
359 356 352 11 351 309 312 315 272 233 171 165 168 207 205 196 195 207 207 204 214 219 237 239 240 251 248 253 252 243 240 238 237 239 248 249 245 247 243 242 249 256 249 255 263 261 273 281 278 267 269 276 280 284
29 301 16 18 7 343 348 344 251 167 159 150 187 192 189 187 184 202 207 207 215 226 231 236 249 243 248 253 253 255 248 254 240 232 240 247 245 250 243 251 249 252 260 260 268 271 276 260 274 278 279 281 286 288
96 334 142 128 133 3 23 43 87 122 150 167 180 176 179 173 187 198 204 209 219 233 226 232 239 248 250 255 254 254 249 249 240 237 242 241 248 250 254 251 249 255 257 261 266 273 275 276 283 264 283 281 280 286
90 109 152 92 65 27 49 115 132 132 150 161 160 158 155 173 182 186 195 208 212 225 237 233 247 252 256 260 258 250 245 242 240 235 242 248 243 249 251 248 256 257 259 265 274 274 280 279 284 288 291 285 284 286
109 119 118 123 118 117 123 133 137 138 144 148 144 147 161 168 181 199 208 208 207 225 242 245 257 261 258 262 256 258 244 236 243 240 255 241 246 250 252 250 259 261 259 263 270 279 276 277 281 290 291 287 287 290
46 110 126 124 119 123 121 129 140 141 125 131 146 159 162 167 184 201 214 197 212 228 238 250 263 269 251 250 259 247 239 219 241 231 248 237 247 256 250 261 261 261 266 272 285 287 285 285 288 290 292 292 289 288
37 47 57 69 76 91 116 124 134 131 124 131 141 155 165 183 193 196 204 209 228 236 243 249 253 254 259 257 253 249 234 227 234 236 247 253 251 247 262 271 280 282 278 279 284 288 289 288 291 295 294 293 293 294
57 59 65 72 77 81 97 109 117 136 145 146 157 173 182 192 168 184 217 222 227 228 242 255 258 264 266 252 246 232 235 232 238 240 247 249 252 261 277 280 282 285 287 289 287 287 294 297 297 295 296 298 299 304
107 105 96 91 85 86 91 104 124 143 163 172 175 180 173 189 210 227 224 224 242 252 260 260 258 259 243 240 237 225 222 226 241 242 234 245 250 275 285 286 291 294 293 297 298 300 301 301 302 308 311 307 302 306
91 99 90 98 110 122 141 154 158 182 185 189 171 179 189 209 214 222 225 244 245 237 233 203 200 200 201 212 208 202 216 220 256 240 240 249 272 287 289 293 298 301 302 301 304 306 311 313 313 316 316 317 318 320
92 104 114 135 144 151 170 185 186 185 182 179 197 203 216 227 215 216 205 206 190 199 211 209 201 211 205 229 227 215 236 229 243 261 247 275 295 300 304 313 313 316 318 319 320 325 328 330 330 329 328 328 330 328
115 136 152 162 171 169 173 200 211 207 203 209 224 239 239 237 256 232 215 206 211 211 217 222 220 214 200 199 228 223 234 245 257 269 271 293 307 313 317 322 326 329 333 337 338 340 341 342 341 338 337 340 344 344
70 69 102 178 217 232 209 195 208 216 188 179 243 243 262 246 250 233 234 210 215 217 210 210 225 242 255 266 254 247 246 248 259 270 275 287 308 324 331 335 340 345 349 353 355 358 359 359 359 0 3 8 14 17
140 139 143 155 163 158 154 170 162 174 156 167 184 195 228 218 229 228 226 218 225 224 222 228 212 206 221 222 254 273 284 283 288 301 318 325 341 347 346 350 8 14 17 19 20 21 24 22 23 26 24 21 19 19
149 156 127 111 107 245 148 153 162 169 179 186 189 211 201 200 214 225 228 224 233 219 205 218 235 240 264 227 255 290 272 289 300 312 329 337 344 348 355 8 14 20 23 24 26 24 23 22 23 20 17 13 13 11
153 144 154 165 185 177 156 173 167 171 159 168 162 171 171 185 205 214 234 244 209 186 213 225 214 260 273 297 323 348 344 4 1 353 354 3 10 11 11 13 14 16 18 16 15 13 13 11 8 5 6 4 3 359
145 161 171 173 159 145 148 145 150 145 155 151 149 158 164 166 272 230 220 252 309 299 174 290 325 358 24 18 25 21 17 22 29 22 13 10 7 9 12 12 11 11 11 11 9 6 2 0 359 356 355 353 351 349
183 207 213 215 172 142 142 142 141 143 142 144 144 98 57 56 26 19 11 340 337 317 355 8 18 19 22 19 12 10 44 41 33 24 15 12 13 12 9 6 6 6 4 2 0 358 356 355 354 353 351 348 347 343
177 172 183 160 154 153 152 156 151 144 138 145 142 130 96 28 30 29 28 28 35 9 25 32 36 30 30 29 26 25 21 23 16 14 12 7 9 9 7 4 2 0 357 353 349 349 351 346 348 348 348 347 344 342
165 173 175 201 170 168 168 170 157 158 160 155 162 165 162 9 15 18 22 24 31 27 32 40 38 37 33 29 29 28 28 25 21 16 10 5 355 353 352 355 354 349 348 347 346 344 344 345 343 344 341 340 343 343
192 214 227 229 215 200 171 172 184 188 170 149 146 100 33 34 18 22 38 23 35 32 36 38 39 39 36 32 28 22 21 20 10 7 5 3 9 8 0 357 357 348 345 346 348 346 343 344 345 343 343 342 339 338
330 355 288 264 337 13 42 4 28 35 31 28 43 47 33 30 35 32 35 29 26 24 25 30 31 28 22 16 10 7 15 19 9 7 9 359 355 355 356 352 350 349 347 346 344 342 342 342 342 342 342 341 340 341
357 306 310 8 13 26 26 24 18 26 27 23 31 27 23 18 24 25 26 28 23 22 18 17 18 17 14 11 10 6 12 10 3 359 356 355 351 348 347 348 347 347 346 342 342 343 343 344 344 344 346 348 347 348
345 331 344 352 353 360 4 16 18 20 19 15 14 18 16 15 14 13 15 16 14 11 7 7 8 8 6 5 2 360 356 1 359 355 353 351 348 344 342 340 341 344 349 348 346 347 349 351 353 353 354 356 356 353
346 345 351 348 11 28 23 20 17 9 9 7 10 9 8 6 6 3 9 10 11 10 11 10 10 8 6 4 4 6 2 1 359 358 358 358 356 354 350 346 345 347 352 353 354 356 356 357 358 359 359 358 359 358
352 350 5 8 17 7 14 8 3 2 6 3 4 0 360 357 356 2 9 19 23 21 16 13 12 13 9 7 6 4 4 8 9 7 8 6 5 2 0 4 6 3 3 9 4 1 0 0 1 2 3 4 4 5
9 25 27 9 9 4 357 358 2 6 4 5 3 2 4 9 15 23 26 28 26 21 11 9 11 12 12 13 11 8 3 360 360 0 358 358 1 357 2 3 359 359 360 2 11 15 10 12 12 11 10 9 8 7
1 2 12 1 1 360 2 13 20 19 18 21 26 34 31 23 21 26 25 19 13 10 11 11 10 12 12 11 9 6 4 2 0 360 360 2 3 2 358 354 351 360 10 11 12 11 14 7 11 13 12 10 9 6
6 8 10 10 13 26 34 36 31 26 23 24 24 22 20 17 14 14 14 16 15 15 13 13 14 14 10 4 359 1 6 7 6 6 359 352 357 353 351 360 13 15 23 17 13 11 8 8 9 9 8 7 7 6
356 2 16 11 17 28 27 17 13 16 16 12 10 13 13 8 0 7 15 14 12 13 12 14 13 10 5 4 4 3 2 5 354 351 341 331 331 334 337 5 36 30 23 19 18 16 13 11 10 9 7 5 4 3
31 26 27 17 10 7 11 11 3 3 2 1 0 2 2 359 358 6 13 14 12 18 19 14 10 9 9 4 2 3 344 353 353 349 354 351 349 356 22 34 19 17 19 19 18 16 14 11 9 7 5 4 3 2